sat.trackr.live / text

‹ back to catalog

STARLINK-36309

NORAD 68325 · 2026-059E

PAYLOAD ACTIVE UNKNOWN

§ Identity

Operator
Country
US
Launch date
2026-03-22
Launch site
AFETR
Launch vehicle
Mass (kg)
RCS (m²)

Purposes: comms

External: N2YO · Heavens-Above · Gunter

§ Orbital elements

Epoch: 2026-05-24T22:49:27.632064Z

Period
93.79 min
Inclination
53.1616°
Eccentricity
0.0000482
Mean motion
15.35416443 rev/d
Perigee alt
459.4 km
Apogee alt
460.0 km
Semi-major
6,837.8 km
B*
8.3306e-4
RAAN
350.3253°
Arg perigee
101.7212°
Mean anomaly
258.3845°
Rev number
990

§ Raw data

STARLINK-363091 68325U 26059E   26144.95101426  .00028804  00000+0  83306-3 0  99952 68325  53.1616 350.3253 0000482 101.7212 258.3845 15.35416443  9906

JSON: /api/v1/satellites/68325 · /tle

For live sub-satellite position, see the globe view (requires WebGL).

§ Visibility from observer

Set your observer location to see the next 7 days of passes ≥ 10°. The values pass through the URL so the page stays shareable.

No JS? Fill the form by hand. The geolocation button needs JavaScript.